AFR754 FCBB-FZAA

Flight info

Callsign AFR754
Flight time 0h 11m
Altitude 7000
Route BZ DCT GUGUS DCT KISGO DCT XUSKI/N0276F060
Aircraft B77W/H-SDE1E2E3FGHIJ2J3J4J5M1RWXY/LB1D1

Departure

Time 2026-04-16 22:44
Airport Maya-Maya International Airport (FCBB)

Arrival

Time 2026-04-16 22:55
Airport Ndjili International Airport (FZAA)
Time Latitude Longitude Altitude Speed Heading
2026-04-16 22:21 -4.25689 15.25154 1047 ft 0 kts 180°
2026-04-16 22:34 -4.25675 15.25155 1047 ft 2 kts 180°
2026-04-16 22:35 -4.25660 15.25155 1047 ft 2 kts 180°
2026-04-16 22:35 -4.25645 15.25155 1046 ft 2 kts 180°
2026-04-16 22:35 -4.25636 15.25155 1046 ft 2 kts 180°
2026-04-16 22:35 -4.25621 15.25153 1046 ft 2 kts 152°
2026-04-16 22:36 -4.25609 15.25144 1046 ft 2 kts 128°
2026-04-16 22:36 -4.25602 15.25131 1046 ft 2 kts 105°
2026-04-16 22:36 -4.25600 15.25116 1046 ft 2 kts 83°
2026-04-16 22:36 -4.25604 15.25102 1046 ft 2 kts 60°
2026-04-16 22:37 -4.25609 15.25096 1046 ft 1 kts 49°
2026-04-16 22:37 -4.25610 15.25094 1046 ft 0 kts 49°
2026-04-16 22:39 -4.25606 15.25099 1046 ft 3 kts 50°
2026-04-16 22:39 -4.25564 15.25151 1045 ft 15 kts 51°
2026-04-16 22:39 -4.25495 15.25234 1044 ft 15 kts 49°
2026-04-16 22:40 -4.25431 15.25309 1047 ft 13 kts 50°
2026-04-16 22:40 -4.25379 15.25370 1048 ft 7 kts 45°
2026-04-16 22:40 -4.25334 15.25380 1049 ft 6 kts 333°
2026-04-16 22:40 -4.25278 15.25336 1049 ft 13 kts 320°
2026-04-16 22:41 -4.25191 15.25264 1047 ft 19 kts 320°
2026-04-16 22:41 -4.25097 15.25185 1046 ft 11 kts 320°
2026-04-16 22:41 -4.25079 15.25128 1045 ft 11 kts 239°
2026-04-16 22:41 -4.25174 15.25009 1043 ft 32 kts 231°
2026-04-16 22:42 -4.25346 15.24801 1043 ft 44 kts 231°
2026-04-16 22:42 -4.25543 15.24570 1043 ft 41 kts 229°
2026-04-16 22:42 -4.25717 15.24363 1039 ft 29 kts 230°
2026-04-16 22:42 -4.25835 15.24244 1036 ft 16 kts 211°
2026-04-16 22:43 -4.25882 15.24221 1036 ft 2 kts 233°
2026-04-16 22:43 -4.25875 15.24190 1035 ft 6 kts 326°
2026-04-16 22:43 -4.25830 15.24223 1036 ft 19 kts 51°
2026-04-16 22:43 -4.25619 15.24478 1042 ft 84 kts 50°
2026-04-16 22:44 -4.25080 15.25118 1046 ft 157 kts 50°
2026-04-16 22:44 -4.24313 15.26052 1550 ft 180 kts 49°
2026-04-16 22:44 -4.23499 15.27009 2475 ft 180 kts 50°
2026-04-16 22:44 -4.22693 15.27961 2742 ft 191 kts 50°
2026-04-16 22:45 -4.21841 15.28976 3470 ft 190 kts 51°
2026-04-16 22:45 -4.20992 15.29989 4141 ft 192 kts 51°
2026-04-16 22:45 -4.20112 15.31038 4629 ft 206 kts 51°
2026-04-16 22:45 -4.19146 15.32189 4972 ft 227 kts 50°
2026-04-16 22:46 -4.18086 15.33450 5013 ft 243 kts 50°
2026-04-16 22:46 -4.16988 15.34756 5005 ft 246 kts 50°
2026-04-16 22:46 -4.15834 15.36130 5006 ft 263 kts 50°
2026-04-16 22:46 -4.14644 15.37548 5004 ft 269 kts 50°
2026-04-16 22:47 -4.13556 15.39080 5002 ft 268 kts 64°
2026-04-16 22:47 -4.13023 15.40865 4999 ft 269 kts 83°
2026-04-16 22:47 -4.13128 15.42734 4997 ft 270 kts 102°
2026-04-16 22:47 -4.13662 15.44533 5006 ft 272 kts 107°
2026-04-16 22:48 -4.14260 15.46314 5005 ft 271 kts 108°
2026-04-16 22:48 -4.14882 15.48096 5003 ft 270 kts 108°
2026-04-16 22:48 -4.15509 15.49875 5008 ft 270 kts 108°
2026-04-16 22:48 -4.16123 15.51613 5005 ft 260 kts 108°
2026-04-16 22:49 -4.16728 15.53327 4979 ft 261 kts 108°
2026-04-16 22:49 -4.17340 15.55042 4774 ft 261 kts 111°
2026-04-16 22:49 -4.18361 15.56523 4435 ft 261 kts 137°
2026-04-16 22:49 -4.19859 15.57528 4126 ft 259 kts 149°
2026-04-16 22:50 -4.21460 15.58379 3821 ft 257 kts 152°
2026-04-16 22:50 -4.23021 15.59176 3709 ft 245 kts 152°
2026-04-16 22:50 -4.24503 15.59934 3645 ft 232 kts 152°
2026-04-16 22:50 -4.25969 15.60472 3557 ft 221 kts 174°
2026-04-16 22:51 -4.27478 15.60276 3470 ft 215 kts 200°
2026-04-16 22:51 -4.28707 15.59447 3437 ft 217 kts 225°
2026-04-16 22:51 -4.29652 15.58264 3420 ft 214 kts 235°
2026-04-16 22:51 -4.30448 15.57058 3387 ft 200 kts 237°
2026-04-16 22:52 -4.31179 15.55920 3365 ft 187 kts 237°
2026-04-16 22:52 -4.31881 15.54828 3182 ft 189 kts 237°
2026-04-16 22:52 -4.32558 15.53706 2904 ft 188 kts 240°
2026-04-16 22:52 -4.33232 15.52600 2646 ft 181 kts 236°
2026-04-16 22:53 -4.33912 15.51596 2406 ft 169 kts 236°
2026-04-16 22:53 -4.34529 15.50656 2191 ft 154 kts 236°
2026-04-16 22:53 -4.35104 15.49775 1988 ft 148 kts 237°
2026-04-16 22:53 -4.35662 15.48915 1789 ft 146 kts 237°
2026-04-16 22:54 -4.36216 15.48063 1592 ft 145 kts 237°
2026-04-16 22:54 -4.36766 15.47225 1398 ft 144 kts 236°
2026-04-16 22:54 -4.37326 15.46385 1183 ft 144 kts 237°
2026-04-16 22:54 -4.37875 15.45532 1025 ft 143 kts 238°
2026-04-16 22:55 -4.38340 15.44805 1029 ft 104 kts 237°
2026-04-16 22:55 -4.38628 15.44361 1030 ft 55 kts 237°
2026-04-16 22:55 -4.38775 15.44136 1031 ft 22 kts 229°
2026-04-16 22:55 -4.38831 15.44097 1032 ft 2 kts 227°
2026-04-16 22:56 -4.38823 15.44078 1032 ft 4 kts 347°
2026-04-16 22:56 -4.38768 15.44137 1031 ft 19 kts 60°
2026-04-16 22:56 -4.38669 15.44301 1031 ft 33 kts 58°
2026-04-16 22:56 -4.38593 15.44450 1029 ft 13 kts 108°
2026-04-16 22:57 -4.38659 15.44505 1032 ft 10 kts 144°
2026-04-16 22:57 -4.38705 15.44537 1034 ft 6 kts 146°
2026-04-16 22:57 -4.38755 15.44570 1035 ft 10 kts 146°
2026-04-16 22:57 -4.38804 15.44592 1037 ft 3 kts 169°
2026-04-16 22:58 -4.38823 15.44592 1038 ft 0 kts 186°
2026-04-16 23:17 -4.38814 15.44593 1037 ft 2 kts 186°
2026-04-16 23:17 -4.38799 15.44594 1037 ft 2 kts 186°
2026-04-16 23:17 -4.38784 15.44596 1037 ft 2 kts 186°
2026-04-16 23:17 -4.38769 15.44597 1037 ft 2 kts 186°
2026-04-16 23:18 -4.38754 15.44599 1036 ft 2 kts 186°
2026-04-16 23:18 -4.38739 15.44600 1036 ft 2 kts 186°
2026-04-16 23:18 -4.38724 15.44602 1035 ft 2 kts 192°
2026-04-16 23:18 -4.38710 15.44607 1035 ft 2 kts 206°
2026-04-16 23:19 -4.38697 15.44614 1035 ft 2 kts 217°
2026-04-16 23:19 -4.38686 15.44624 1035 ft 2 kts 227°
2026-04-16 23:19 -4.38677 15.44634 1035 ft 0 kts 237°
2026-04-16 23:19 -4.38675 15.44637 1035 ft 0 kts 238°
2026-04-16 23:20 -4.38676 15.44637 1035 ft 0 kts 238°
2026-04-16 23:24 -4.38677 15.44634 1035 ft 1 kts 238°
2026-04-16 23:24 -4.38693 15.44609 1035 ft 7 kts 238°
2026-04-16 23:25 -4.38723 15.44562 1034 ft 11 kts 237°
2026-04-16 23:25 -4.38780 15.44474 1034 ft 18 kts 237°
2026-04-16 23:25 -4.38862 15.44349 1034 ft 21 kts 237°
2026-04-16 23:25 -4.38937 15.44233 1036 ft 17 kts 238°
2026-04-16 23:26 -4.38957 15.44163 1036 ft 8 kts 306°
2026-04-16 23:26 -4.38899 15.44123 1034 ft 11 kts 328°
2026-04-16 23:26 -4.38839 15.44070 1032 ft 11 kts 285°
2026-04-16 23:26 -4.38870 15.43985 1030 ft 15 kts 237°
2026-04-16 23:27 -4.38936 15.43884 1029 ft 19 kts 237°
2026-04-16 23:27 -4.39014 15.43763 1029 ft 21 kts 237°
2026-04-16 23:27 -4.39103 15.43626 1028 ft 24 kts 237°
2026-04-16 23:27 -4.39202 15.43470 1027 ft 27 kts 237°
2026-04-16 23:28 -4.39313 15.43299 1024 ft 30 kts 237°
2026-04-16 23:28 -4.39434 15.43112 1020 ft 31 kts 237°
2026-04-16 23:28 -4.39549 15.42933 1015 ft 29 kts 237°
2026-04-16 23:28 -4.39646 15.42833 1012 ft 16 kts 210°
2026-04-16 23:29 -4.39713 15.42786 1011 ft 8 kts 231°
2026-04-16 23:29 -4.39728 15.42742 1010 ft 4 kts 290°
2026-04-16 23:29 -4.39706 15.42727 1010 ft 3 kts 354°
2026-04-16 23:29 -4.39692 15.42730 1010 ft 1 kts 27°
2026-04-16 23:30 -4.39680 15.42739 1010 ft 6 kts 41°
2026-04-16 23:30 -4.39634 15.42799 1011 ft 15 kts 57°
2026-04-16 23:30 -4.39501 15.43004 1017 ft 64 kts 57°
2026-04-16 23:30 -4.39147 15.43557 1028 ft 123 kts 57°
2026-04-16 23:31 -4.38574 15.44448 1031 ft 178 kts 57°
2026-04-16 23:31 -4.37878 15.45550 1399 ft 191 kts 58°
2026-04-16 23:31 -4.37162 15.46714 1981 ft 204 kts 58°
2026-04-16 23:31 -4.36407 15.47921 2523 ft 209 kts 58°
2026-04-16 23:32 -4.35551 15.49127 2970 ft 214 kts 43°
2026-04-16 23:32 -4.34232 15.49803 3418 ft 217 kts
2026-04-16 23:32 -4.32746 15.49634 3884 ft 219 kts 337°
2026-04-16 23:32 -4.31377 15.48940 4303 ft 227 kts 333°
2026-04-16 23:33 -4.29909 15.48150 4487 ft 247 kts 333°
2026-04-16 23:33 -4.28363 15.47315 4841 ft 257 kts 333°
2026-04-16 23:33 -4.26791 15.46464 5454 ft 258 kts 333°
2026-04-16 23:33 -4.25167 15.45586 5859 ft 271 kts 333°
2026-04-16 23:34 -4.23499 15.44684 6435 ft 276 kts 333°
2026-04-16 23:34 -4.21813 15.43770 7111 ft 277 kts 333°
2026-04-16 23:34 -4.20093 15.42838 7715 ft 281 kts 333°
2026-04-16 23:34 -4.18362 15.41899 8351 ft 283 kts 334°
2026-04-16 23:35 -4.16627 15.40958 8953 ft 286 kts 334°
2026-04-16 23:35 -4.14868 15.40002 9552 ft 288 kts 333°
2026-04-16 23:35 -4.13261 15.38796 10045 ft 297 kts 314°
2026-04-16 23:35 -4.11930 15.37122 10292 ft 316 kts 307°
2026-04-16 23:36 -4.10613 15.35251 10445 ft 337 kts 307°
2026-04-16 23:36 -4.09238 15.33298 10587 ft 357 kts 307°
2026-04-16 23:36 -4.07746 15.31189 10731 ft 377 kts 307°
2026-04-16 23:36 -4.06198 15.29007 10893 ft 394 kts 307°
2026-04-16 23:37 -4.04601 15.26756 11381 ft 400 kts 307°
2026-04-16 23:37 -4.02975 15.24464 12042 ft 402 kts 306°